Probability
0 0 3 6 3 10 10 10 6 0 0 0 0 0 0 0 0 0 6 6 3 3 3 6 10 16 13 13 13 6 6 6 6 6 10 10 10 6 10 16 13 13 19
0 0 0 0 6 6 6 6 0 3 6 3 0 0 0 0 0 0 0 10 3 6 3 6 19 16 13 10 13 10 10 6 6 6 6 6 10 6 6 16 13 13 13
0 0 0 3 3 6 3 6 0 0 0 0 0 3 3 3 3 3 0 0 3 3 6 3 3 3 10 3 6 3 6 6 6 6 6 6 6 13 16 13 13 10 13
0 0 3 3 3 6 10 3 3 3 0 0 3 3 3 3 3 3 3 0 3 0 3 3 3 0 0 0 3 3 3 6 6 6 6 6 6 6 6 6 10 13 13
0 0 3 3 6 10 6 0 6 0 3 3 3 0 3 0 3 3 3 0 0 3 3 0 0 0 0 0 0 3 3 3 3 3 3 6 6 6 6 6 10 10 6
3 3 3 3 0 3 3 6 0 0 0 0 0 0 0 0 0 3 3 3 0 0 0 0 0 0 0 0 0 0 0 3 3 3 3 3 6 6 6 6 6 6 6
0 3 3 0 3 3 0 3 6 3 3 0 0 0 0 0 0 0 3 3 0 0 0 0 0 0 0 0 0 0 0 0 0 0 0 0 3 3 3 3 3 6 6
3 3 0 3 3 10 0 3 10 6 0 0 0 0 0 0 0 0 0 0 0 3 0 0 0 0 0 0 0 0 0 0 0 0 0 0 3 3 3 3 3 0 3
6 0 0 0 0 3 6 6 10 6 0 0 0 0 0 0 0 0 0 0 0 0 0 0 0 0 0 0 0 0 0 0 0 0 0 0 0 0 0 0 0 0 0
6 0 0 0 0 3 3 3 3 6 6 3 3 0 0 0 0 0 0 0 0 0 0 0 0 0 0 0 0 0 0 0 0 0 0 0 0 0 0 0 0 0 0
6 3 3 0 3 3 0 0 0 3 3 6 10 6 0 0 0 0 0 0 0 0 0 0 0 0 0 0 0 0 0 0 0 0 0 0 0 0 0 0 0 0 0
6 3 3 0 0 3 3 3 6 6 6 3 6 6 0 0 0 0 0 0 0 0 0 0 0 0 0 0 0 0 0 0 0 0 0 0 0 0 0 0 0 0 0
6 3 3 3 3 3 3 6 3 6 3 3 3 10 6 3 3 3 0 0 0 0 0 0 0 0 0 0 0 0 0 0 0 0 0 0 0 0 0 0 0 0 0
0 0 3 3 3 3 3 3 3 3 3 3 0 3 6 3 3 0 0 0 0 0 0 0 0 0 0 0 0 0 0 0 0 0 0 0 0 0 0 0 0 0 0
3 3 3 3 3 6 3 6 6 3 0 6 6 6 3 3 0 0 0 0 0 0 0 0 0 0 0 0 0 0 0 0 0 0 0 0 0 0 0 0 0 0 0
3 3 3 3 3 3 3 3 6 10 0 6 10 3 0 0 0 6 3 0 0 0 0 0 0 0 0 0 0 0 0 0 0 0 0 0 0 0 0 0 0 0 0
3 3 3 3 3 3 3 3 3 3 3 0 0 0 0 0 3 3 0 0 0 0 0 0 0 0 0 0 0 0 0 0 0 0 0 0 0 0 0 0 0 0 0
3 3 3 0 0 0 0 0 0 0 3 0 0 0 0 3 0 0 0 0 0 0 0 0 0 0 0 0 0 0 0 0 0 0 0 0 0 0 0 0 0 0 0
3 3 3 0 0 0 0 0 0 0 3 0 0 0 0 0 0 0 0 0 0 0 0 0 0 0 0 0 0 0 0 0 0 0 0 0 0 0 0 0 0 0 0
3 3 0 0 0 0 0 0 0 0 3 3 3 3 0 0 0 0 0 0 0 0 0 0 0 0 0 0 0 0 0 0 0 0 0 0 0 0 0 0 0 0 0
3 0 0 0 0 0 0 0 0 3 3 3 3 3 0 0 0 0 0 0 0 0 0 0 0 0 0 0 0 0 0 0 0 0 0 0 0 0 0 0 0 0 0
3 3 0 0 0 0 0 0 0 0 0 3 3 3 3 0 0 0 0 0 0 0 0 0 0 0 0 0 0 0 0 0 0 0 0 0 0 0 0 0 0 0 0
3 3 3 6 0 0 0 0 0 0 0 3 3 3 3 0 0 0 0 0 0 0 0 0 0 0 0 0 0 0 0 0 0 0 0 0 0 0 0 0 0 0 0
3 10 10 6 10 0 0 0 0 0 0 0 3 3 3 3 0 0 0 0 0 0 0 0 0 0 0 0 0 0 0 0 0 0 0 0 0 0 0 0 0 0 0
10 6 10 3 3 0 0 0 0 0 0 0 0 0 3 3 0 0 0 0 0 0 0 0 0 0 0 0 0 0 0 0 0 0 0 0 0 0 0 0 0 0 0
10 6 3 0 0 0 0 0 0 0 0 0 0 0 0 0 0 0 0 0 0 0 0 0 0 0 0 0 0 0 0 0 0 0 0 0 0 0 0 0 0 0 0
Height
5860 5859 5859 5859 5859 5859 5859 5859 5859 5859 5860 5860 5860 5860 5860 5860 5859 5859 5859 5859 5858 5858 5858 5857 5857 5857 5856 5855 5855 5854 5854 5854 5853 5852 5852 5851 5850 5850 5849 5848 5847 5846 5845
5857 5857 5857 5857 5857 5857 5857 5857 5857 5858 5858 5858 5858 5858 5858 5858 5858 5857 5857 5857 5857 5856 5856 5855 5855 5854 5854 5853 5853 5852 5852 5851 5851 5850 5849 5848 5848 5847 5846 5845 5844 5843 5842
5855 5855 5856 5856 5856 5855 5856 5856 5856 5856 5857 5857 5856 5856 5856 5856 5856 5856 5855 5855 5855 5854 5854 5854 5853 5852 5852 5851 5850 5850 5849 5849 5848 5848 5847 5846 5845 5844 5843 5842 5841 5840 5839
5853 5853 5854 5854 5854 5854 5854 5854 5855 5855 5855 5855 5855 5855 5855 5854 5854 5854 5854 5853 5853 5853 5852 5852 5851 5851 5850 5849 5849 5848 5847 5847 5846 5845 5845 5844 5843 5841 5840 5839 5838 5837 5836
5851 5852 5852 5852 5852 5852 5852 5852 5853 5853 5853 5853 5853 5853 5853 5853 5853 5852 5852 5852 5851 5851 5850 5850 5850 5849 5848 5848 5847 5846 5846 5845 5844 5843 5843 5842 5840 5839 5838 5837 5836 5834 5833
5850 5850 5850 5850 5851 5851 5851 5851 5851 5851 5851 5851 5851 5851 5851 5851 5851 5851 5850 5850 5850 5849 5849 5848 5848 5847 5847 5846 5846 5845 5844 5843 5843 5842 5841 5840 5839 5837 5836 5835 5833 5832 5830
5848 5848 5848 5849 5849 5849 5849 5849 5849 5849 5849 5849 5850 5850 5850 5850 5849 5849 5849 5849 5848 5848 5847 5847 5846 5846 5845 5845 5844 5844 5843 5842 5841 5840 5839 5839 5837 5836 5834 5833 5831 5829 5828
5847 5847 5847 5847 5847 5847 5847 5847 5847 5847 5847 5848 5848 5849 5849 5849 5848 5848 5848 5847 5847 5846 5846 5846 5845 5844 5844 5844 5843 5842 5842 5841 5840 5839 5838 5837 5836 5834 5833 5831 5829 5827 5825
5845 5845 5845 5845 5845 5846 5846 5846 5846 5846 5846 5846 5847 5847 5848 5847 5847 5847 5846 5846 5846 5845 5845 5844 5844 5844 5843 5843 5842 5841 5840 5840 5839 5838 5837 5836 5834 5833 5831 5829 5827 5825 5823
5844 5844 5844 5844 5844 5844 5844 5845 5845 5845 5845 5845 5845 5846 5846 5846 5846 5846 5846 5845 5845 5844 5844 5843 5843 5843 5842 5841 5841 5840 5839 5838 5837 5836 5835 5834 5832 5831 5829 5827 5825 5823 5821
5842 5842 5842 5842 5842 5842 5842 5843 5843 5843 5844 5844 5844 5844 5844 5844 5845 5845 5845 5844 5844 5844 5843 5843 5842 5842 5841 5840 5839 5839 5838 5837 5836 5835 5833 5832 5831 5829 5827 5825 5824 5822 5819
5840 5840 5840 5840 5840 5840 5841 5841 5841 5842 5842 5842 5842 5842 5843 5843 5843 5843 5843 5843 5843 5843 5842 5842 5841 5841 5840 5839 5838 5837 5836 5835 5834 5833 5832 5830 5829 5827 5826 5824 5822 5820 5818
5838 5838 5838 5838 5838 5838 5839 5839 5840 5840 5841 5841 5841 5841 5841 5841 5842 5842 5842 5842 5841 5841 5841 5841 5840 5839 5839 5838 5837 5836 5835 5834 5833 5832 5830 5828 5827 5825 5823 5822 5820 5817 5815
5836 5836 5836 5836 5836 5836 5837 5837 5838 5838 5839 5839 5839 5840 5840 5840 5840 5840 5840 5840 5840 5840 5839 5839 5839 5838 5838 5837 5836 5835 5834 5833 5832 5830 5828 5827 5825 5823 5822 5820 5818 5816 5813
5834 5834 5834 5834 5834 5835 5835 5836 5836 5837 5837 5838 5838 5838 5838 5838 5838 5838 5839 5839 5839 5838 5838 5838 5838 5837 5837 5836 5835 5834 5833 5831 5830 5828 5827 5825 5823 5821 5820 5818 5816 5814 5812
5831 5832 5832 5832 5832 5833 5833 5834 5834 5835 5835 5836 5836 5836 5836 5836 5837 5837 5837 5837 5837 5837 5836 5836 5836 5836 5835 5834 5833 5832 5831 5829 5828 5827 5825 5823 5822 5820 5818 5816 5814 5812 5810
5829 5829 5830 5830 5830 5831 5831 5832 5832 5833 5833 5833 5834 5834 5834 5835 5835 5835 5835 5835 5835 5835 5835 5834 5834 5834 5833 5832 5831 5830 5829 5828 5827 5825 5823 5822 5820 5818 5816 5814 5812 5810 5808
5826 5827 5827 5827 5828 5828 5829 5830 5830 5830 5831 5831 5832 5832 5832 5833 5833 5833 5833 5833 5833 5833 5833 5833 5832 5832 5831 5830 5829 5828 5827 5826 5825 5823 5822 5820 5818 5816 5814 5812 5810 5808 5806
5823 5824 5824 5825 5825 5826 5827 5827 5828 5828 5828 5829 5829 5830 5830 5830 5831 5831 5831 5831 5831 5831 5831 5831 5830 5830 5829 5828 5827 5826 5825 5824 5823 5821 5820 5818 5816 5814 5812 5810 5808 5805 5803
5820 5821 5821 5822 5822 5823 5824 5824 5825 5825 5826 5826 5826 5827 5827 5828 5828 5829 5829 5829 5829 5829 5829 5828 5828 5827 5827 5826 5825 5824 5823 5822 5820 5819 5817 5816 5814 5812 5810 5807 5805 5803 5801
5817 5817 5818 5818 5819 5820 5821 5821 5822 5822 5823 5823 5824 5824 5825 5825 5826 5826 5826 5826 5826 5826 5826 5826 5825 5825 5824 5823 5823 5822 5821 5819 5818 5816 5815 5813 5811 5809 5807 5805 5802 5800 5798
5813 5814 5815 5815 5816 5817 5817 5818 5819 5819 5820 5820 5821 5822 5822 5823 5823 5823 5824 5824 5824 5824 5824 5823 5822 5822 5821 5820 5819 5819 5818 5816 5815 5813 5812 5810 5808 5806 5804 5802 5799 5797 5794
5809 5810 5811 5812 5812 5813 5814 5815 5815 5816 5816 5817 5818 5819 5819 5820 5820 5820 5820 5820 5820 5820 5820 5820 5819 5819 5818 5817 5816 5815 5814 5813 5812 5810 5808 5807 5804 5802 5800 5798 5796 5793 5790
5805 5806 5807 5808 5808 5809 5810 5811 5811 5812 5813 5814 5814 5815 5816 5816 5816 5817 5817 5817 5817 5817 5816 5816 5816 5815 5814 5813 5813 5812 5810 5809 5808 5806 5804 5803 5801 5799 5796 5794 5791 5789 5786
5800 5801 5802 5803 5804 5805 5806 5807 5808 5808 5809 5810 5811 5811 5812 5812 5813 5813 5813 5813 5813 5813 5812 5812 5811 5811 5810 5809 5808 5807 5806 5805 5803 5802 5800 5798 5796 5794 5792 5789 5787 5784 5781
5795 5796 5798 5799 5800 5800 5801 5802 5803 5804 5805 5806 5806 5807 5807 5808 5808 5809 5809 5809 5809 5809 5808 5808 5807 5806 5805 5804 5803 5802 5801 5800 5798 5797 5795 5793 5791 5789 5787 5784 5781 5779 5776
Wind_Speed
9 9 9 9 9 10 10 9 9 9 9 9 10 10 9 10 9 9 9 9 9 9 9 10 10 10 10 11 12 12 12 12 12 12 12 13 14 14 14 15 15 16 16
9 9 9 9 9 9 9 9 9 8 9 9 9 10 10 10 10 9 9 9 9 9 9 9 9 9 9 10 10 10 10 11 11 11 12 13 13 14 14 14 15 15 15
8 8 9 9 9 9 9 10 9 9 9 9 9 9 9 9 9 9 9 9 9 9 8 8 8 8 9 9 9 9 8 9 9 10 10 11 12 13 13 13 13 14 14
8 8 9 9 9 8 8 9 9 9 9 9 9 8 8 8 8 9 9 9 9 9 8 8 7 7 7 8 8 8 8 8 9 9 9 10 10 11 11 11 12 12 13
7 8 8 8 8 8 8 8 9 9 9 9 9 8 8 7 7 8 8 8 8 9 9 8 7 7 7 7 7 7 7 8 8 8 9 9 9 9 9 10 10 11 12
7 7 7 7 8 8 8 8 8 9 9 9 8 8 8 8 7 7 8 8 9 9 8 7 7 7 7 7 7 7 7 7 7 7 7 8 8 8 9 9 10 10 10
7 7 7 7 8 7 8 8 8 9 8 8 8 8 8 8 7 7 7 8 8 8 7 7 7 7 7 6 5 6 6 6 6 6 7 7 8 8 9 9 10 10 10
7 6 6 7 7 8 7 7 7 7 7 7 7 7 7 6 6 7 6 6 6 6 6 6 6 6 6 5 5 6 6 6 6 6 7 7 8 8 9 10 10 10 10
7 7 7 8 8 8 8 7 6 6 6 6 6 6 6 6 6 6 6 5 5 4 5 5 5 5 5 5 6 6 6 6 7 7 8 8 8 9 9 9 9 10 10
9 9 9 8 8 9 8 7 6 6 6 6 7 7 7 7 7 6 6 5 4 4 4 4 4 4 4 5 5 6 6 6 7 8 9 8 8 9 9 10 10 11 11
8 8 9 8 8 8 8 7 7 7 7 7 7 7 7 7 7 6 5 5 5 5 5 5 4 4 4 5 5 5 6 6 7 8 8 8 8 8 9 10 10 11 12
8 8 8 8 8 9 9 8 7 7 6 6 7 7 6 7 7 6 5 5 5 5 5 5 5 5 5 5 5 5 5 6 6 7 7 8 7 8 8 9 10 11 12
9 8 8 8 8 9 9 8 8 7 7 6 6 7 6 7 7 7 6 5 5 6 5 5 5 5 5 5 5 6 6 6 6 7 7 8 8 8 8 10 11 12 12
8 8 8 8 8 8 8 8 8 8 8 7 7 7 7 7 7 7 6 6 5 5 5 5 5 5 5 5 6 6 6 6 7 7 8 9 9 9 9 10 10 11 12
9 9 9 8 8 8 8 8 8 8 8 8 8 7 7 7 8 7 7 7 6 5 5 5 5 5 5 5 6 6 6 7 8 8 9 9 9 9 10 10 10 11 12
10 9 9 9 9 9 9 9 9 9 9 9 8 8 8 8 8 8 8 7 7 7 6 6 6 6 6 6 7 7 7 8 8 9 9 9 9 9 10 11 11 11 12
9 10 10 9 10 10 10 10 9 9 9 9 9 9 8 8 8 8 8 8 7 7 7 7 7 7 7 7 7 8 7 8 8 9 8 9 9 10 11 11 11 11 12
10 10 10 10 10 10 10 10 10 9 9 9 9 9 9 9 8 8 8 7 7 7 7 7 7 7 7 7 7 7 7 8 8 8 8 9 10 11 11 12 12 13 13
11 11 11 11 11 11 11 11 11 10 10 10 10 9 9 9 8 8 8 8 8 8 8 8 8 8 8 8 8 8 8 8 9 9 9 10 11 11 12 12 13 14 14
12 12 12 12 12 12 12 11 11 11 11 10 10 10 9 9 9 9 9 8 8 8 8 8 9 9 9 8 8 9 9 9 10 10 11 11 12 13 13 13 13 14 15
13 12 12 13 13 13 13 13 13 12 12 11 10 10 10 10 10 10 10 10 9 9 9 9 9 9 9 9 9 9 9 10 10 11 11 11 12 13 13 14 14 15 16
13 13 12 13 14 13 13 13 13 13 12 12 11 11 11 11 11 11 11 12 11 10 10 10 10 10 10 10 10 10 10 11 12 12 12 13 13 13 14 14 15 16 17
14 13 13 13 14 15 14 14 14 13 13 13 13 12 12 12 12 12 12 12 12 11 11 11 11 11 12 12 12 12 13 13 13 14 14 14 15 15 16 16 16 17 17
15 14 14 14 15 15 15 15 15 14 14 14 14 14 14 14 13 13 13 13 13 13 13 13 13 13 14 14 14 14 14 14 15 15 16 16 16 17 17 17 18 19 19
16 15 15 15 15 15 15 14 15 15 15 15 15 15 15 15 15 15 15 14 13 13 14 13 14 14 15 15 15 16 16 16 16 17 17 18 18 19 19 19 19 20 20
18 17 16 16 16 16 15 15 15 15 15 16 16 16 16 16 16 16 16 15 15 15 15 15 15 16 16 17 17 18 18 19 19 19 19 19 20 20 20 20 20 21 21
Wind_Direction
258 257 253 253 255 256 257 259 261 260 258 254 253 255 257 258 263 260 261 261 263 267 269 271 272 273 271 269 267 266 268 270 272 273 274 274 274 277 278 280 279 278 279
255 252 250 251 252 254 255 259 261 258 256 258 259 259 257 259 260 260 262 262 262 266 270 271 271 271 274 274 270 268 270 271 273 277 278 274 275 278 280 281 282 281 278
251 249 250 251 253 252 255 258 260 256 258 260 260 259 257 256 257 258 261 262 264 266 266 270 272 271 273 275 274 272 272 272 277 282 284 282 279 280 282 282 284 283 282
253 247 246 248 250 252 255 257 258 257 256 258 256 255 256 257 257 257 262 265 262 264 267 269 273 274 274 277 276 273 276 281 283 285 288 290 289 287 287 287 287 287 287
249 246 250 250 248 250 251 256 256 258 257 254 250 249 250 255 257 257 261 265 263 263 268 270 271 274 274 271 272 279 281 285 287 289 292 294 296 295 294 293 292 294 294
248 248 250 248 248 252 253 253 254 256 255 251 248 246 247 252 255 257 261 262 260 262 264 265 269 272 273 271 273 282 287 290 295 295 298 301 301 300 303 302 299 298 298
249 248 246 247 250 253 254 255 259 257 252 250 247 246 246 250 253 253 256 256 257 255 254 261 267 266 267 270 275 281 287 296 296 301 297 301 302 306 308 308 307 302 296
249 246 247 249 253 254 254 258 259 255 248 243 242 241 243 249 255 255 252 251 251 252 252 265 268 263 266 272 281 284 288 291 292 296 300 301 305 308 310 313 314 309 305
249 247 252 253 253 252 252 253 254 248 246 243 242 245 246 253 256 258 260 253 250 252 261 264 267 264 266 276 284 288 287 288 293 293 300 301 304 307 309 315 318 314 313
249 249 253 255 252 247 249 252 247 243 248 248 247 249 255 256 256 258 259 254 248 254 261 266 269 268 278 284 290 293 292 294 300 301 302 302 304 306 310 314 318 316 315
255 253 249 251 251 248 245 245 245 245 246 246 249 251 256 255 251 254 253 250 247 250 258 265 274 278 287 293 297 301 301 301 304 306 307 308 309 311 314 319 319 318 316
257 253 247 246 252 250 245 243 241 245 246 249 249 250 250 247 246 247 249 251 250 256 262 267 275 282 288 295 304 310 312 313 312 312 314 317 314 314 318 322 322 320 320
254 250 250 247 250 247 243 241 240 239 246 248 247 244 243 243 241 241 245 248 254 259 266 266 270 275 285 294 303 309 310 311 317 320 323 324 316 318 323 326 326 326 324
255 250 253 252 246 239 237 240 239 242 244 243 242 242 243 244 240 237 241 246 256 260 257 260 266 277 286 293 300 305 303 303 308 311 316 319 315 324 325 326 326 328 329
256 252 252 248 243 236 237 239 241 242 243 242 243 246 247 245 240 236 243 249 255 260 259 261 267 273 281 291 300 305 303 303 306 311 314 317 316 322 324 323 322 324 329
255 252 249 248 244 241 241 243 244 245 244 245 244 245 245 245 243 243 246 250 252 254 258 261 266 270 278 287 295 302 305 310 309 313 315 319 323 327 325 323 320 319 322
252 247 247 246 242 240 240 241 243 244 244 244 243 243 244 245 245 245 244 247 246 249 254 260 267 272 276 283 290 296 298 303 308 313 313 318 323 327 327 326 323 320 320
250 247 246 244 242 240 238 240 242 244 243 245 244 243 242 241 244 240 240 243 244 249 255 261 267 272 277 284 289 293 295 300 304 308 311 318 321 323 323 323 322 320 319
250 246 246 245 243 240 240 242 243 245 245 247 244 240 239 238 238 238 239 243 244 250 258 264 269 273 277 280 285 289 293 298 301 300 306 314 318 319 320 321 322 320 318
251 248 248 246 244 241 241 242 243 244 247 247 243 241 239 238 239 240 241 243 248 252 257 265 269 273 276 279 283 286 291 297 300 303 304 308 313 314 316 318 320 320 318
250 248 247 245 244 243 241 242 245 245 245 243 241 241 239 240 242 243 245 247 248 251 257 263 268 273 275 279 282 284 289 295 299 301 303 306 309 312 314 316 317 318 318
248 246 245 244 243 243 241 243 245 243 240 240 242 244 243 241 243 245 249 252 252 255 259 266 270 271 275 278 281 284 288 292 298 299 301 303 306 308 310 312 314 315 315
247 244 245 245 245 245 245 246 244 241 239 239 242 246 246 245 247 247 249 252 255 259 263 268 271 272 275 278 280 283 287 291 293 296 300 301 302 303 306 308 311 313 313
246 245 245 246 246 247 248 247 243 241 241 242 245 249 249 246 248 250 250 254 256 259 264 268 271 274 276 277 279 283 287 289 291 293 297 299 300 302 303 306 308 309 310
245 245 245 246 246 247 249 246 243 243 244 244 245 250 250 249 250 251 253 255 259 263 266 271 274 275 276 278 279 282 286 289 289 290 293 296 298 301 302 303 305 306 307
244 244 245 247 246 246 246 245 243 247 246 244 245 250 251 252 253 254 255 256 257 261 265 270 274 276 277 278 280 282 284 286 287 289 291 293 295 297 299 300 302 304 305